ASTROCAST-0302

导读 | 星芒AI

ASTROCAST-0302 是一颗由 ASTROCAST 公司部署的纳米卫星,主要用于提供全球范围的物联网(IoT)连接服务。该卫星运行在低地球轨道,旨在支持远程地区设备的数据传输,适用于环境监测、物流跟踪和资产管理等领域。作为 ASTROCAST 卫星网络的一部分,0302 号卫星增强了系统的覆盖能力和通信稳定性,推动了基于卫星的物联网应用发展。

基本信息
目录编号:
54369
目录名称:
ASTROCAST-0302
国际标识:
2022-158J
轨道中心:
EARTH
卫星名称:
ASTROCAST-0302
卫星全名:
--
卫星状态:
已陨落 最后检测时间 2025-09-12
发射日期:
2022-11-26 UTC
国别 :
瑞士 (CH)
星等 :
--
轨道信息
数据来源 国际轨道数据
星历时间: 2025-09-07T15:06:41+0800
轨道信息已过期52天
半长轴: 6652.195km
偏心率: 0.0014181
轨道倾角: 97.435°
近地点辐角 272.295°
升交点赤经 15.096°
平近点角 87.670°
近地点: 264.626km
远地点: 283.494km
周期: 89.993分钟
每日圈数: 16.001304
详细信息
使用方式:
暂无